Year,Month,Day,Hour,Minute,Value (Times are PST for temperature in C)
2016,06,20,00,00,14.40
2016,06,20,00,01,14.40
2016,06,20,00,02,14.40
2016,06,20,00,03,14.40
2016,06,20,00,04,14.30
2016,06,20,00,05,14.30
2016,06,20,00,06,14.30
2016,06,20,00,07,14.30
2016,06,20,00,08,14.30
2016,06,20,00,09,14.30
2016,06,20,00,10,14.20
2016,06,20,00,11,14.20
2016,06,20,00,12,14.10
2016,06,20,00,13,14.10
2016,06,20,00,14,14.10
2016,06,20,00,15,14.00
2016,06,20,00,16,14.00
2016,06,20,00,17,13.90
2016,06,20,00,18,13.90
2016,06,20,00,19,13.90
2016,06,20,00,20,13.80
2016,06,20,00,21,13.80
2016,06,20,00,22,13.80
2016,06,20,00,23,13.80
2016,06,20,00,24,13.80
2016,06,20,00,25,13.80
2016,06,20,00,26,13.80
2016,06,20,00,27,13.70
2016,06,20,00,28,13.70
2016,06,20,00,29,13.70
2016,06,20,00,30,13.70
2016,06,20,00,31,13.70
2016,06,20,00,32,13.70
2016,06,20,00,33,13.70
2016,06,20,00,34,13.70
2016,06,20,00,35,13.70
2016,06,20,00,36,13.70
2016,06,20,00,37,13.70
2016,06,20,00,38,13.70
2016,06,20,00,39,13.70
2016,06,20,00,40,13.60
2016,06,20,00,41,13.60
2016,06,20,00,42,13.50
2016,06,20,00,43,13.50
2016,06,20,00,44,13.40
2016,06,20,00,45,13.30
2016,06,20,00,46,13.30
2016,06,20,00,47,13.20
2016,06,20,00,48,13.10
2016,06,20,00,49,13.00
2016,06,20,00,50,12.90
2016,06,20,00,51,12.90
2016,06,20,00,52,12.80
2016,06,20,00,53,12.80
2016,06,20,00,54,12.80
2016,06,20,00,55,12.70
2016,06,20,00,56,12.70
2016,06,20,00,57,12.70
2016,06,20,00,58,12.70
2016,06,20,00,59,12.70
2016,06,20,01,00,12.60
2016,06,20,01,01,12.60
2016,06,20,01,02,12.60
2016,06,20,01,03,12.60
2016,06,20,01,04,12.60
2016,06,20,01,05,12.60
2016,06,20,01,06,12.50
2016,06,20,01,07,12.50
2016,06,20,01,08,12.50
2016,06,20,01,09,12.50
2016,06,20,01,10,12.40
2016,06,20,01,11,12.40
2016,06,20,01,12,12.40
2016,06,20,01,13,12.40
2016,06,20,01,14,12.40
2016,06,20,01,15,12.40
2016,06,20,01,16,12.40
2016,06,20,01,17,12.40
2016,06,20,01,18,12.40
2016,06,20,01,19,12.40
2016,06,20,01,20,12.40
2016,06,20,01,21,12.40
2016,06,20,01,22,12.40
2016,06,20,01,23,12.40
2016,06,20,01,24,12.40
2016,06,20,01,25,12.40
2016,06,20,01,26,12.30
2016,06,20,01,27,12.30
2016,06,20,01,28,12.30
2016,06,20,01,29,12.30
2016,06,20,01,30,12.30
2016,06,20,01,31,12.30
2016,06,20,01,32,12.30
2016,06,20,01,33,12.30
2016,06,20,01,34,12.30
2016,06,20,01,35,12.30
2016,06,20,01,36,12.30
2016,06,20,01,37,12.30
2016,06,20,01,38,12.30
2016,06,20,01,39,12.30
2016,06,20,01,40,12.20
2016,06,20,01,41,12.20
2016,06,20,01,42,12.20
2016,06,20,01,43,12.20
2016,06,20,01,44,12.20
2016,06,20,01,45,12.20
2016,06,20,01,46,12.10
2016,06,20,01,47,12.10
2016,06,20,01,48,12.10
2016,06,20,01,49,12.10
2016,06,20,01,50,12.10
2016,06,20,01,51,12.10
2016,06,20,01,52,12.10
2016,06,20,01,53,12.10
2016,06,20,01,54,12.10
2016,06,20,01,55,12.10
2016,06,20,01,56,12.10
2016,06,20,01,57,12.10
2016,06,20,01,58,12.10
2016,06,20,01,59,12.10
2016,06,20,02,00,12.10
2016,06,20,02,01,12.10
2016,06,20,02,02,12.10
2016,06,20,02,03,12.00
2016,06,20,02,04,12.00
2016,06,20,02,05,12.00
2016,06,20,02,06,12.00
2016,06,20,02,07,11.90
2016,06,20,02,08,11.90
2016,06,20,02,09,11.90
2016,06,20,02,10,11.80
2016,06,20,02,11,11.80
2016,06,20,02,12,11.80
2016,06,20,02,13,11.80
2016,06,20,02,14,11.80
2016,06,20,02,15,11.80
2016,06,20,02,16,11.70
2016,06,20,02,17,11.70
2016,06,20,02,18,11.70
2016,06,20,02,19,11.70
2016,06,20,02,20,11.70
2016,06,20,02,21,11.70
2016,06,20,02,22,11.60
2016,06,20,02,23,11.60
2016,06,20,02,24,11.60
2016,06,20,02,25,11.60
2016,06,20,02,26,11.60
2016,06,20,02,27,11.60
2016,06,20,02,28,11.60
2016,06,20,02,29,11.60
2016,06,20,02,30,11.60
2016,06,20,02,31,11.60
2016,06,20,02,32,11.60
2016,06,20,02,33,11.60
2016,06,20,02,34,11.60
2016,06,20,02,35,11.60
2016,06,20,02,36,11.60
2016,06,20,02,37,11.60
2016,06,20,02,38,11.60
2016,06,20,02,39,11.60
2016,06,20,02,40,11.60
2016,06,20,02,41,11.60
2016,06,20,02,42,11.60
2016,06,20,02,43,11.60
2016,06,20,02,44,11.60
2016,06,20,02,45,11.70
2016,06,20,02,46,11.70
2016,06,20,02,47,11.70
2016,06,20,02,48,11.70
2016,06,20,02,49,11.70
2016,06,20,02,50,11.70
2016,06,20,02,51,11.70
2016,06,20,02,52,11.70
2016,06,20,02,53,11.70
2016,06,20,02,54,11.70
2016,06,20,02,55,11.70
2016,06,20,02,56,11.70
2016,06,20,02,57,11.80
2016,06,20,02,58,11.80
2016,06,20,02,59,11.80
2016,06,20,03,00,11.80
2016,06,20,03,01,11.70
2016,06,20,03,02,11.70
2016,06,20,03,03,11.70
2016,06,20,03,04,11.70
2016,06,20,03,05,11.60
2016,06,20,03,06,11.60
2016,06,20,03,07,11.60
2016,06,20,03,08,11.60
2016,06,20,03,09,11.60
2016,06,20,03,10,11.60
2016,06,20,03,11,11.60
2016,06,20,03,12,11.60
2016,06,20,03,13,11.60
2016,06,20,03,14,11.60
2016,06,20,03,15,11.60
2016,06,20,03,16,11.60
2016,06,20,03,17,11.60
2016,06,20,03,18,11.60
2016,06,20,03,19,11.60
2016,06,20,03,20,11.60
2016,06,20,03,21,11.50
2016,06,20,03,22,11.50
2016,06,20,03,23,11.50
2016,06,20,03,24,11.40
2016,06,20,03,25,11.40
2016,06,20,03,26,11.40
2016,06,20,03,27,11.40
2016,06,20,03,28,11.40
2016,06,20,03,29,11.40
2016,06,20,03,30,11.40
2016,06,20,03,31,11.40
2016,06,20,03,32,11.50
2016,06,20,03,33,11.50
2016,06,20,03,34,11.50
2016,06,20,03,35,11.50
2016,06,20,03,36,11.50
2016,06,20,03,37,11.60
2016,06,20,03,38,11.60
2016,06,20,03,39,11.60
2016,06,20,03,40,11.60
2016,06,20,03,41,11.50
2016,06,20,03,42,11.50
2016,06,20,03,43,11.40
2016,06,20,03,44,11.40
2016,06,20,03,45,11.40
2016,06,20,03,46,11.40
2016,06,20,03,47,11.40
2016,06,20,03,48,11.40
2016,06,20,03,49,11.30
2016,06,20,03,50,11.30
2016,06,20,03,51,11.30
2016,06,20,03,52,11.30
2016,06,20,03,53,11.30
2016,06,20,03,54,11.40
2016,06,20,03,55,11.40
2016,06,20,03,56,11.40
2016,06,20,03,57,11.40
2016,06,20,03,58,11.40
2016,06,20,03,59,11.40
2016,06,20,04,00,11.40
2016,06,20,04,01,11.40
2016,06,20,04,02,11.40
2016,06,20,04,03,11.40
2016,06,20,04,04,11.40
2016,06,20,04,05,11.30
2016,06,20,04,06,11.30
2016,06,20,04,07,11.30
2016,06,20,04,08,11.30
2016,06,20,04,09,11.30
2016,06,20,04,10,11.30
2016,06,20,04,11,11.30
2016,06,20,04,12,11.20
2016,06,20,04,13,11.20
2016,06,20,04,14,11.20
2016,06,20,04,15,11.30
2016,06,20,04,16,11.30
2016,06,20,04,17,11.30
2016,06,20,04,18,11.30
2016,06,20,04,19,11.20
2016,06,20,04,20,11.20
2016,06,20,04,21,11.20
2016,06,20,04,22,11.10
2016,06,20,04,23,11.10
2016,06,20,04,24,11.10
2016,06,20,04,25,11.10
2016,06,20,04,26,11.10
2016,06,20,04,27,11.10
2016,06,20,04,28,11.10
2016,06,20,04,29,11.10
2016,06,20,04,30,11.10
2016,06,20,04,31,11.10
2016,06,20,04,32,11.10
2016,06,20,04,33,11.10
2016,06,20,04,34,11.00
2016,06,20,04,35,11.00
2016,06,20,04,36,11.00
2016,06,20,04,37,11.00
2016,06,20,04,38,11.00
2016,06,20,04,39,10.90
2016,06,20,04,40,10.90
2016,06,20,04,41,10.90
2016,06,20,04,42,10.90
2016,06,20,04,43,10.80
2016,06,20,04,44,10.80
2016,06,20,04,45,10.80
2016,06,20,04,46,10.80
2016,06,20,04,47,10.80
2016,06,20,04,48,10.80
2016,06,20,04,49,10.80
2016,06,20,04,50,10.80
2016,06,20,04,51,10.80
2016,06,20,04,52,10.80
2016,06,20,04,53,10.80
2016,06,20,04,54,10.80
2016,06,20,04,55,10.80
2016,06,20,04,56,10.80
2016,06,20,04,57,10.80
2016,06,20,04,58,10.80
2016,06,20,04,59,10.80
2016,06,20,05,00,10.80
2016,06,20,05,01,10.80
2016,06,20,05,02,10.80
2016,06,20,05,03,10.80
2016,06,20,05,04,10.80
2016,06,20,05,05,10.90
2016,06,20,05,06,10.90
2016,06,20,05,07,10.90
2016,06,20,05,08,10.90
2016,06,20,05,09,10.90
2016,06,20,05,10,10.90
2016,06,20,05,11,10.90
2016,06,20,05,12,10.90
2016,06,20,05,13,10.90
2016,06,20,05,14,11.00
2016,06,20,05,15,10.90
2016,06,20,05,16,10.90
2016,06,20,05,17,10.90
2016,06,20,05,18,10.90
2016,06,20,05,19,10.90
2016,06,20,05,20,10.80
2016,06,20,05,21,10.80
2016,06,20,05,22,10.80
2016,06,20,05,23,10.80
2016,06,20,05,24,10.80
2016,06,20,05,25,10.80
2016,06,20,05,26,10.70
2016,06,20,05,27,10.70
2016,06,20,05,28,10.70
2016,06,20,05,29,10.70
2016,06,20,05,30,10.70
2016,06,20,05,31,10.70
2016,06,20,05,32,10.60
2016,06,20,05,33,10.60
2016,06,20,05,34,10.60
2016,06,20,05,35,10.60
2016,06,20,05,36,10.60
2016,06,20,05,37,10.60
2016,06,20,05,38,10.60
2016,06,20,05,39,10.60
2016,06,20,05,40,10.60
2016,06,20,05,41,10.60
2016,06,20,05,42,10.60
2016,06,20,05,43,10.60
2016,06,20,05,44,10.50
2016,06,20,05,45,10.50
2016,06,20,05,46,10.50
2016,06,20,05,47,10.50
2016,06,20,05,48,10.50
2016,06,20,05,49,10.50
2016,06,20,05,50,10.50
2016,06,20,05,51,10.50
2016,06,20,05,52,10.50
2016,06,20,05,53,10.50
2016,06,20,05,54,10.50
2016,06,20,05,55,10.50
2016,06,20,05,56,10.50
2016,06,20,05,57,10.50
2016,06,20,05,58,10.50
2016,06,20,05,59,10.50
2016,06,20,06,00,10.50
2016,06,20,06,01,10.50
2016,06,20,06,02,10.50
2016,06,20,06,03,10.50
2016,06,20,06,04,10.60
2016,06,20,06,05,10.60
2016,06,20,06,06,10.60
2016,06,20,06,07,10.60
2016,06,20,06,08,10.70
2016,06,20,06,09,10.70
2016,06,20,06,10,10.70
2016,06,20,06,11,10.70
2016,06,20,06,12,10.70
2016,06,20,06,13,10.70
2016,06,20,06,14,10.70
2016,06,20,06,15,10.70
2016,06,20,06,16,10.70
2016,06,20,06,17,10.70
2016,06,20,06,18,10.70
2016,06,20,06,19,10.70
2016,06,20,06,20,10.70
2016,06,20,06,21,10.70
2016,06,20,06,22,10.70
2016,06,20,06,23,10.70
2016,06,20,06,24,10.70
2016,06,20,06,25,10.70
2016,06,20,06,26,10.70
2016,06,20,06,27,10.70
2016,06,20,06,28,10.70
2016,06,20,06,29,10.80
2016,06,20,06,30,10.80
2016,06,20,06,31,10.80
2016,06,20,06,32,10.80
2016,06,20,06,33,10.80
2016,06,20,06,34,10.80
2016,06,20,06,35,10.80
2016,06,20,06,36,10.80
2016,06,20,06,37,10.80
2016,06,20,06,38,10.70
2016,06,20,06,39,10.70
2016,06,20,06,40,10.70
2016,06,20,06,41,10.70
2016,06,20,06,42,10.70
2016,06,20,06,43,10.70
2016,06,20,06,44,10.70
2016,06,20,06,45,10.70
2016,06,20,06,46,10.70
2016,06,20,06,47,10.70
2016,06,20,06,48,10.70
2016,06,20,06,49,10.80
2016,06,20,06,50,10.80
2016,06,20,06,51,10.80
2016,06,20,06,52,10.80
2016,06,20,06,53,10.80
2016,06,20,06,54,10.80
2016,06,20,06,55,10.90
2016,06,20,06,56,10.90
2016,06,20,06,57,10.90
2016,06,20,06,58,11.00
2016,06,20,06,59,11.00
2016,06,20,07,00,11.00
2016,06,20,07,01,11.00
2016,06,20,07,02,11.10
2016,06,20,07,03,11.10
2016,06,20,07,04,11.10
2016,06,20,07,05,11.20
2016,06,20,07,06,11.20
2016,06,20,07,07,11.20
2016,06,20,07,08,11.30
2016,06,20,07,09,11.30
2016,06,20,07,10,11.30
2016,06,20,07,11,11.30
2016,06,20,07,12,11.40
2016,06,20,07,13,11.40
2016,06,20,07,14,11.50
2016,06,20,07,15,11.50
2016,06,20,07,16,11.60
2016,06,20,07,17,11.60
2016,06,20,07,18,11.60
2016,06,20,07,19,11.70
2016,06,20,07,20,11.70
2016,06,20,07,21,11.80
2016,06,20,07,22,11.80
2016,06,20,07,23,11.80
2016,06,20,07,24,11.90
2016,06,20,07,25,11.90
2016,06,20,07,26,11.90
2016,06,20,07,27,12.00
2016,06,20,07,28,12.00
2016,06,20,07,29,12.00
2016,06,20,07,30,12.10
2016,06,20,07,31,12.10
2016,06,20,07,32,12.20
2016,06,20,07,33,12.30
2016,06,20,07,34,12.30
2016,06,20,07,35,12.30
2016,06,20,07,36,12.40
2016,06,20,07,37,12.40
2016,06,20,07,38,12.50
2016,06,20,07,39,12.60
2016,06,20,07,40,12.60
2016,06,20,07,41,12.60
2016,06,20,07,42,12.70
2016,06,20,07,43,12.80
2016,06,20,07,44,12.80
2016,06,20,07,45,12.80
2016,06,20,07,46,12.90
2016,06,20,07,47,12.90
2016,06,20,07,48,13.00
2016,06,20,07,49,13.00
2016,06,20,07,50,13.00
2016,06,20,07,51,13.10
2016,06,20,07,52,13.10
2016,06,20,07,53,13.20
2016,06,20,07,54,13.20
2016,06,20,07,55,13.20
2016,06,20,07,56,13.20
2016,06,20,07,57,13.20
2016,06,20,07,58,13.30
2016,06,20,07,59,13.30
2016,06,20,08,00,13.30
2016,06,20,08,01,13.30
2016,06,20,08,02,13.30
2016,06,20,08,03,13.40
2016,06,20,08,04,13.40
2016,06,20,08,05,13.40
2016,06,20,08,06,13.50
2016,06,20,08,07,13.50
2016,06,20,08,08,13.60
2016,06,20,08,09,13.70
2016,06,20,08,10,13.70
2016,06,20,08,11,13.80
2016,06,20,08,12,13.90
2016,06,20,08,13,14.00
2016,06,20,08,14,14.10
2016,06,20,08,15,14.20
2016,06,20,08,16,14.30
2016,06,20,08,17,14.40
2016,06,20,08,18,14.50
2016,06,20,08,19,14.60
2016,06,20,08,20,14.70
2016,06,20,08,21,14.80
2016,06,20,08,22,14.90
2016,06,20,08,23,14.90
2016,06,20,08,24,15.00
2016,06,20,08,25,15.20
2016,06,20,08,26,15.30
2016,06,20,08,27,15.40
2016,06,20,08,28,15.40
2016,06,20,08,29,15.50
2016,06,20,08,30,15.50
2016,06,20,08,31,15.60
2016,06,20,08,32,15.70
2016,06,20,08,33,15.80
2016,06,20,08,34,15.80
2016,06,20,08,35,15.90
2016,06,20,08,36,15.90
2016,06,20,08,37,15.90
2016,06,20,08,38,16.00
2016,06,20,08,39,16.00
2016,06,20,08,40,16.10
2016,06,20,08,41,16.10
2016,06,20,08,42,16.20
2016,06,20,08,43,16.20
2016,06,20,08,44,16.30
2016,06,20,08,45,16.40
2016,06,20,08,46,16.40
2016,06,20,08,47,16.40
2016,06,20,08,48,16.40
2016,06,20,08,49,16.40
2016,06,20,08,50,16.40
2016,06,20,08,51,16.40
2016,06,20,08,52,16.50
2016,06,20,08,53,16.50
2016,06,20,08,54,16.60
2016,06,20,08,55,16.60
2016,06,20,08,56,16.60
2016,06,20,08,57,16.70
2016,06,20,08,58,16.70
2016,06,20,08,59,16.80
2016,06,20,09,00,16.90
2016,06,20,09,01,16.80
2016,06,20,09,02,16.80
2016,06,20,09,03,16.80
2016,06,20,09,04,16.80
2016,06,20,09,05,16.80
2016,06,20,09,06,16.80
2016,06,20,09,07,16.70
2016,06,20,09,08,16.70
2016,06,20,09,09,16.70
2016,06,20,09,10,16.70
2016,06,20,09,11,16.70
2016,06,20,09,12,16.70
2016,06,20,09,13,16.70
2016,06,20,09,14,16.70
2016,06,20,09,15,16.70
2016,06,20,09,16,16.70
2016,06,20,09,17,16.60
2016,06,20,09,18,16.70
2016,06,20,09,19,16.70
2016,06,20,09,20,16.70
2016,06,20,09,21,16.70
2016,06,20,09,22,16.80
2016,06,20,09,23,16.80
2016,06,20,09,24,16.70
2016,06,20,09,25,16.70
2016,06,20,09,26,16.60
2016,06,20,09,27,16.60
2016,06,20,09,28,16.50
2016,06,20,09,29,16.60
2016,06,20,09,30,16.60
2016,06,20,09,31,16.60
2016,06,20,09,32,16.60
2016,06,20,09,33,16.70
2016,06,20,09,34,16.70
2016,06,20,09,35,16.70
2016,06,20,09,36,16.80
2016,06,20,09,37,16.80
2016,06,20,09,38,16.80
2016,06,20,09,39,16.80
2016,06,20,09,40,16.90
2016,06,20,09,41,16.90
2016,06,20,09,42,16.90
2016,06,20,09,43,16.90
2016,06,20,09,44,16.90
2016,06,20,09,45,17.00
2016,06,20,09,46,17.00
2016,06,20,09,47,17.00
2016,06,20,09,48,17.00
2016,06,20,09,49,17.00
2016,06,20,09,50,17.00
2016,06,20,09,51,17.00
2016,06,20,09,52,17.00
2016,06,20,09,53,16.90
2016,06,20,09,54,16.90
2016,06,20,09,55,16.90
2016,06,20,09,56,17.00
2016,06,20,09,57,17.10
2016,06,20,09,58,17.10
2016,06,20,09,59,17.10
2016,06,20,10,00,17.10
2016,06,20,10,01,17.10
2016,06,20,10,02,17.20
2016,06,20,10,03,17.30
2016,06,20,10,04,17.30
2016,06,20,10,05,17.40
2016,06,20,10,06,17.40
2016,06,20,10,07,17.50
2016,06,20,10,08,17.60
2016,06,20,10,09,17.60
2016,06,20,10,10,17.60
2016,06,20,10,11,17.70
2016,06,20,10,12,17.70
2016,06,20,10,13,17.70
2016,06,20,10,14,17.70
2016,06,20,10,15,17.70
2016,06,20,10,16,17.80
2016,06,20,10,17,17.80
2016,06,20,10,18,17.80
2016,06,20,10,19,18.00
2016,06,20,10,20,18.00
2016,06,20,10,21,18.10
2016,06,20,10,22,18.00
2016,06,20,10,23,18.00
2016,06,20,10,24,18.00
2016,06,20,10,25,18.10
2016,06,20,10,26,18.20
2016,06,20,10,27,18.30
2016,06,20,10,28,18.30
2016,06,20,10,29,18.40
2016,06,20,10,30,18.40
2016,06,20,10,31,18.40
2016,06,20,10,32,18.40
2016,06,20,10,33,18.50
2016,06,20,10,34,18.50
2016,06,20,10,35,18.60
2016,06,20,10,36,18.50
2016,06,20,10,37,18.50
2016,06,20,10,38,18.40
2016,06,20,10,39,18.40
2016,06,20,10,40,18.30
2016,06,20,10,41,18.20
2016,06,20,10,42,18.20
2016,06,20,10,43,18.20
2016,06,20,10,44,18.20
2016,06,20,10,45,18.30
2016,06,20,10,46,18.30
2016,06,20,10,47,18.30
2016,06,20,10,48,18.30
2016,06,20,10,49,18.30
2016,06,20,10,50,18.30
2016,06,20,10,51,18.40
2016,06,20,10,52,18.40
2016,06,20,10,53,18.50
2016,06,20,10,54,18.50
2016,06,20,10,55,18.50
2016,06,20,10,56,18.50
2016,06,20,10,57,18.50
2016,06,20,10,58,18.50
2016,06,20,10,59,18.50
2016,06,20,11,00,18.60
2016,06,20,11,01,18.60
2016,06,20,11,02,18.60
2016,06,20,11,03,18.60
2016,06,20,11,04,18.50
2016,06,20,11,05,18.40
2016,06,20,11,06,18.40
2016,06,20,11,07,18.30
2016,06,20,11,08,18.40
2016,06,20,11,09,18.40
2016,06,20,11,10,18.40
2016,06,20,11,11,18.40
2016,06,20,11,12,18.40
2016,06,20,11,13,18.40
2016,06,20,11,14,18.40
2016,06,20,11,15,18.40
2016,06,20,11,16,18.50
2016,06,20,11,17,18.60
2016,06,20,11,18,18.60
2016,06,20,11,19,18.70
2016,06,20,11,20,18.70
2016,06,20,11,21,18.70
2016,06,20,11,22,18.70
2016,06,20,11,23,18.70
2016,06,20,11,24,18.80
2016,06,20,11,25,18.80
2016,06,20,11,26,18.80
2016,06,20,11,27,18.80
2016,06,20,11,28,18.70
2016,06,20,11,29,18.70
2016,06,20,11,30,18.60
2016,06,20,11,31,18.60
2016,06,20,11,32,18.60
2016,06,20,11,33,18.50
2016,06,20,11,34,18.50
2016,06,20,11,35,18.50
2016,06,20,11,36,18.60
2016,06,20,11,37,18.70
2016,06,20,11,38,18.80
2016,06,20,11,39,18.80
2016,06,20,11,40,18.80
2016,06,20,11,41,18.90
2016,06,20,11,42,18.90
2016,06,20,11,43,19.10
2016,06,20,11,44,19.20
2016,06,20,11,45,19.30
2016,06,20,11,46,19.40
2016,06,20,11,47,19.40
2016,06,20,11,48,19.40
2016,06,20,11,49,19.30
2016,06,20,11,50,19.30
2016,06,20,11,51,19.30
2016,06,20,11,52,19.30
2016,06,20,11,53,19.30
2016,06,20,11,54,19.30
2016,06,20,11,55,19.20
2016,06,20,11,56,19.20
2016,06,20,11,57,19.20
2016,06,20,11,58,19.20
2016,06,20,11,59,19.20
2016,06,20,12,00,19.20
2016,06,20,12,01,19.20
2016,06,20,12,02,19.20
2016,06,20,12,03,19.20
2016,06,20,12,04,19.20
2016,06,20,12,05,19.20
2016,06,20,12,06,19.20
2016,06,20,12,07,19.30
2016,06,20,12,08,19.30
2016,06,20,12,09,19.40
2016,06,20,12,10,19.40
2016,06,20,12,11,19.40
2016,06,20,12,12,19.40
2016,06,20,12,13,19.40
2016,06,20,12,14,19.30
2016,06,20,12,15,19.30
2016,06,20,12,16,19.10
2016,06,20,12,17,19.10
2016,06,20,12,18,19.10
2016,06,20,12,19,19.10
2016,06,20,12,20,19.10
2016,06,20,12,21,19.10
2016,06,20,12,22,19.10
2016,06,20,12,23,19.20
2016,06,20,12,24,19.20
2016,06,20,12,25,19.20
2016,06,20,12,26,19.20
2016,06,20,12,27,19.30
2016,06,20,12,28,19.30
2016,06,20,12,29,19.40
2016,06,20,12,30,19.40
2016,06,20,12,31,19.50
2016,06,20,12,32,19.60
2016,06,20,12,33,19.60
2016,06,20,12,34,19.60
2016,06,20,12,35,19.60
2016,06,20,12,36,19.60
2016,06,20,12,37,19.50
2016,06,20,12,38,19.50
2016,06,20,12,39,19.40
2016,06,20,12,40,19.40
2016,06,20,12,41,19.40
2016,06,20,12,42,19.40
2016,06,20,12,43,19.40
2016,06,20,12,44,19.40
2016,06,20,12,45,19.40
2016,06,20,12,46,19.50
2016,06,20,12,47,19.50
2016,06,20,12,48,19.60
2016,06,20,12,49,19.60
2016,06,20,12,50,19.50
2016,06,20,12,51,19.40
2016,06,20,12,52,19.40
2016,06,20,12,53,19.40
2016,06,20,12,54,19.50
2016,06,20,12,55,19.50
2016,06,20,12,56,19.60
2016,06,20,12,57,19.50
2016,06,20,12,58,19.50
2016,06,20,12,59,19.50
2016,06,20,13,00,19.50
2016,06,20,13,01,19.60
2016,06,20,13,02,19.70
2016,06,20,13,03,19.80
2016,06,20,13,04,19.90
2016,06,20,13,05,19.90
2016,06,20,13,06,19.90
2016,06,20,13,07,20.00
2016,06,20,13,08,20.10
2016,06,20,13,09,20.10
2016,06,20,13,10,20.10
2016,06,20,13,11,20.10
2016,06,20,13,12,20.10
2016,06,20,13,13,20.10
2016,06,20,13,14,20.20
2016,06,20,13,15,20.20
2016,06,20,13,16,20.00
2016,06,20,13,17,19.90
2016,06,20,13,18,19.80
2016,06,20,13,19,19.80
2016,06,20,13,20,19.80
2016,06,20,13,21,19.70
2016,06,20,13,22,19.70
2016,06,20,13,23,19.60
2016,06,20,13,24,19.70
2016,06,20,13,25,19.70
2016,06,20,13,26,19.70
2016,06,20,13,27,19.80
2016,06,20,13,28,19.80
2016,06,20,13,29,19.80
2016,06,20,13,30,19.80
2016,06,20,13,31,19.70
2016,06,20,13,32,19.70
2016,06,20,13,33,19.70
2016,06,20,13,34,19.60
2016,06,20,13,35,19.40
2016,06,20,13,36,19.30
2016,06,20,13,37,19.30
2016,06,20,13,38,19.20
2016,06,20,13,39,19.10
2016,06,20,13,40,19.10
2016,06,20,13,41,19.20
2016,06,20,13,42,19.20
2016,06,20,13,43,19.20
2016,06,20,13,44,19.20
2016,06,20,13,45,19.20
2016,06,20,13,46,19.20
2016,06,20,13,47,19.20
2016,06,20,13,48,19.10
2016,06,20,13,49,19.10
2016,06,20,13,50,19.10
2016,06,20,13,51,19.10
2016,06,20,13,52,19.10
2016,06,20,13,53,19.20
2016,06,20,13,54,19.20
2016,06,20,13,55,19.30
2016,06,20,13,56,19.30
2016,06,20,13,57,19.40
2016,06,20,13,58,19.40
2016,06,20,13,59,19.50
2016,06,20,14,00,19.60
2016,06,20,14,01,19.70
2016,06,20,14,02,19.70
2016,06,20,14,03,19.80
2016,06,20,14,04,19.80
2016,06,20,14,05,19.70
2016,06,20,14,06,19.60
2016,06,20,14,07,19.60
2016,06,20,14,08,19.60
2016,06,20,14,09,19.60
2016,06,20,14,10,19.50
2016,06,20,14,11,19.30
2016,06,20,14,12,19.30
2016,06,20,14,13,19.30
2016,06,20,14,14,19.40
2016,06,20,14,15,19.50
2016,06,20,14,16,19.60
2016,06,20,14,17,19.70
2016,06,20,14,18,19.70
2016,06,20,14,19,19.80
2016,06,20,14,20,19.80
2016,06,20,14,21,19.70
2016,06,20,14,22,19.70
2016,06,20,14,23,19.80
2016,06,20,14,24,20.00
2016,06,20,14,25,20.00
2016,06,20,14,26,19.90
2016,06,20,14,27,19.90
2016,06,20,14,28,19.70
2016,06,20,14,29,19.70
2016,06,20,14,30,19.70
2016,06,20,14,31,19.80
2016,06,20,14,32,19.90
2016,06,20,14,33,19.90
2016,06,20,14,34,19.80
2016,06,20,14,35,19.80
2016,06,20,14,36,19.90
2016,06,20,14,37,19.90
2016,06,20,14,38,20.00
2016,06,20,14,39,20.10
2016,06,20,14,40,20.20
2016,06,20,14,41,20.20
2016,06,20,14,42,20.30
2016,06,20,14,43,20.30
2016,06,20,14,44,20.30
2016,06,20,14,45,20.30
2016,06,20,14,46,20.40
2016,06,20,14,47,20.50
2016,06,20,14,48,20.50
2016,06,20,14,49,20.60
2016,06,20,14,50,20.60
2016,06,20,14,51,20.70
2016,06,20,14,52,20.70
2016,06,20,14,53,20.80
2016,06,20,14,54,20.90
2016,06,20,14,55,21.00
2016,06,20,14,56,21.10
2016,06,20,14,57,21.00
2016,06,20,14,58,21.00
2016,06,20,14,59,21.00
2016,06,20,15,00,21.00
2016,06,20,15,01,21.00
2016,06,20,15,02,21.00
2016,06,20,15,03,21.00
2016,06,20,15,04,21.10
2016,06,20,15,05,21.20
2016,06,20,15,06,21.30
2016,06,20,15,07,21.40
2016,06,20,15,08,21.50
2016,06,20,15,09,21.60
2016,06,20,15,10,21.60
2016,06,20,15,11,21.70
2016,06,20,15,12,21.70
2016,06,20,15,13,21.70
2016,06,20,15,14,21.60
2016,06,20,15,15,21.60
2016,06,20,15,16,21.60
2016,06,20,15,17,21.60
2016,06,20,15,18,21.60
2016,06,20,15,19,21.60
2016,06,20,15,20,21.60
2016,06,20,15,21,21.60
2016,06,20,15,22,21.40
2016,06,20,15,23,21.40
2016,06,20,15,24,21.30
2016,06,20,15,25,21.40
2016,06,20,15,26,21.40
2016,06,20,15,27,21.40
2016,06,20,15,28,21.40
2016,06,20,15,29,21.30
2016,06,20,15,30,21.30
2016,06,20,15,31,21.30
2016,06,20,15,32,21.40
2016,06,20,15,33,21.40
2016,06,20,15,34,21.50
2016,06,20,15,35,21.60
2016,06,20,15,36,21.80
2016,06,20,15,37,21.90
2016,06,20,15,38,21.90
2016,06,20,15,39,21.90
2016,06,20,15,40,21.90
2016,06,20,15,41,21.90
2016,06,20,15,42,21.80
2016,06,20,15,43,21.60
2016,06,20,15,44,21.40
2016,06,20,15,45,21.20
2016,06,20,15,46,21.20
2016,06,20,15,47,21.10
2016,06,20,15,48,21.00
2016,06,20,15,49,21.00
2016,06,20,15,50,20.80
2016,06,20,15,51,20.70
2016,06,20,15,52,20.70
2016,06,20,15,53,20.70
2016,06,20,15,54,20.70
2016,06,20,15,55,20.60
2016,06,20,15,56,20.60
2016,06,20,15,57,20.70
2016,06,20,15,58,20.80
2016,06,20,15,59,20.80
2016,06,20,16,00,20.70
2016,06,20,16,01,20.70
2016,06,20,16,02,20.60
2016,06,20,16,03,20.60
2016,06,20,16,04,20.50
2016,06,20,16,05,20.50
2016,06,20,16,06,20.40
2016,06,20,16,07,20.20
2016,06,20,16,08,20.20
2016,06,20,16,09,20.00
2016,06,20,16,10,19.90
2016,06,20,16,11,19.80
2016,06,20,16,12,19.70
2016,06,20,16,13,19.50
2016,06,20,16,14,19.30
2016,06,20,16,15,19.20
2016,06,20,16,16,19.20
2016,06,20,16,17,19.20
2016,06,20,16,18,19.20
2016,06,20,16,19,19.20
2016,06,20,16,20,19.30
2016,06,20,16,21,19.20
2016,06,20,16,22,19.20
2016,06,20,16,23,19.10
2016,06,20,16,24,19.10
2016,06,20,16,25,19.00
2016,06,20,16,26,19.00
2016,06,20,16,27,19.10
2016,06,20,16,28,19.00
2016,06,20,16,29,19.00
2016,06,20,16,30,19.10
2016,06,20,16,31,19.20
2016,06,20,16,32,19.30
2016,06,20,16,33,19.30
2016,06,20,16,34,19.30
2016,06,20,16,35,19.30
2016,06,20,16,36,19.30
2016,06,20,16,37,19.40
2016,06,20,16,38,19.50
2016,06,20,16,39,19.60
2016,06,20,16,40,19.60
2016,06,20,16,41,19.70
2016,06,20,16,42,19.70
2016,06,20,16,43,19.70
2016,06,20,16,44,19.70
2016,06,20,16,45,19.70
2016,06,20,16,46,19.80
2016,06,20,16,47,19.80
2016,06,20,16,48,19.90
2016,06,20,16,49,19.90
2016,06,20,16,50,19.90
2016,06,20,16,51,19.80
2016,06,20,16,52,19.80
2016,06,20,16,53,19.80
2016,06,20,16,54,19.80
2016,06,20,16,55,19.90
2016,06,20,16,56,19.80
2016,06,20,16,57,19.80
2016,06,20,16,58,19.80
2016,06,20,16,59,19.60
2016,06,20,17,00,19.60
2016,06,20,17,01,19.60
2016,06,20,17,02,19.60
2016,06,20,17,03,19.50
2016,06,20,17,04,19.50
2016,06,20,17,05,19.40
2016,06,20,17,06,19.30
2016,06,20,17,07,19.30
2016,06,20,17,08,19.30
2016,06,20,17,09,19.20
2016,06,20,17,10,19.20
2016,06,20,17,11,19.20
2016,06,20,17,12,19.10
2016,06,20,17,13,19.10
2016,06,20,17,14,19.00
2016,06,20,17,15,19.00
2016,06,20,17,16,19.00
2016,06,20,17,17,19.00
2016,06,20,17,18,18.90
2016,06,20,17,19,18.90